Find Starlink 38269

NORAD ID: 100392 Int'l Des: 2026-190 Owner: SPXS Country: US Constellation: starlink operational

当前视图

正在加载3D地球...

About Starlink 38269

Starlink 38269 (NORAD 100392) is a starlink constellation satellite launched Aug 19, 2026 by SPXS of US. with a mass of 575.00 kg.

即将过境

Passes for default location (London). Set your location on the main map for personalized predictions.

高度历史

Loading altitude history...

两行轨道根数

1 A0392U 26190X 26264.26049185 -.00505388 00000-0 -95787-2 0 9996
2 A0392 97.2848 118.4759 0001268 65.0643 295.0740 15.50125523 6484
Epoch: Sep 21, 2026 • Age: 6 hours

当前状态

高度 431.7 km
远地点 / 近地点 N/A
速度 7.65 km/s
星下点 -37.56°S, 60.36°W
发射日期 Aug 19, 2026
运行时间 33 days
类型 internet

技术详情

分类 Payload
质量 575.00 kg
干质量 530.00 kg
长度 0.30 m
跨度 29.00 m
形状 ? Box + pan
制造商 SPXS
平台类型 Starlink V2MO
阶段状态 In Orbit
所有者/国家 SPXS/US

Most Searched